Location: Woodstock
(35.2731°N, 89.9823°W)
Time: 12:28:57
(UTC+00:00)

Explorer 11/Cluster Stage 4 - Visible Passes

Search period start: 28 April 2025 00:00
Search period end: 08 May 2025 00:00
Orbit: 463 x 1192 km, 28.8° (Epoch: 27 April)

Date Brightness Start Highest point End Pass type
(mag) Time Alt. Az. Time Alt. Az. Time Alt. Az.
28 Apr 7.9 08:16:34 40° SE 08:16:34 40° SE 08:21:47 10° E visible
28 Apr 7.4 09:57:56 19° WSW 10:03:05 50° S 10:09:18 10° ESE visible
29 Apr 8.3 07:55:34 34° ESE 07:55:34 34° ESE 07:59:49 10° E visible
29 Apr 7.5 09:36:56 27° WSW 09:40:56 51° S 09:47:25 10° ESE visible
30 Apr 8.7 07:34:36 26° ESE 07:34:36 26° ESE 07:37:46 10° E visible
30 Apr 7.5 09:15:58 36° WSW 09:18:45 52° S 09:25:29 10° ESE visible
01 May 9.1 07:13:41 19° ESE 07:13:41 19° ESE 07:15:40 10° E visible
01 May 7.5 08:55:03 46° SW 08:56:31 52° S 09:03:30 10° ESE visible
01 May 7.9 10:37:41 10° W 10:44:24 35° SSW 10:50:18 10° SE visible
02 May 9.5 06:52:51 13° E 06:52:51 13° E 06:53:30 10° E visible
02 May 7.5 08:34:13 52° S 08:34:15 52° S 08:41:25 10° ESE visible
02 May 7.9 10:15:36 11° W 10:22:11 35° SSW 10:28:19 10° SE visible
03 May 7.8 08:13:31 46° SSE 08:13:31 46° SSE 08:19:18 10° ESE visible
03 May 7.9 09:54:54 17° WSW 09:59:56 35° SSW 10:06:16 10° SE visible
04 May 8.3 07:52:57 33° SE 07:52:57 33° SE 07:57:06 10° ESE visible
04 May 8.0 09:34:21 25° WSW 09:37:39 35° SSW 09:44:09 10° SE visible
05 May 9.0 07:32:34 21° ESE 07:32:34 21° ESE 07:34:51 10° ESE visible
05 May 7.9 09:13:59 32° SW 09:15:20 34° SSW 09:21:58 10° SE visible
06 May 9.5 07:12:23 11° ESE 07:12:23 11° ESE 07:12:32 10° ESE visible
06 May 8.0 08:53:49 33° S 08:53:49 33° S 08:59:44 10° SE visible
06 May 8.9 10:36:52 10° WSW 10:40:28 14° SSW 10:43:57 10° S visible
07 May 8.6 03:01:58 10° SSW 03:03:14 16° SSW 03:03:14 16° SSW visible
07 May 8.6 08:33:52 24° SSE 08:33:52 24° SSE 08:37:24 10° SE visible
07 May 8.9 10:15:18 11° SW 10:18:10 14° SSW 10:21:36 10° S visible
